Regional Weather Roundup
Issued by NWS

Home | Current Version | Previous Version | Text Only | Print | Product List | Glossary Off
Versions: 1 2 3 4 5 6 7 8 9 10 11 12 13 14 15 16 17 18 19 20 21 22 23 24 25 26 27 28 29 30 31 32 33 34 35 36 37 38 39 40 41 42 43 44 45 46 47 48 49 50

000
ASUS43 KIND 222209
RWRIN

WEATHER ROUNDUP FOR INDIANA
NATIONAL WEATHER SERVICE INDIANAPOLIS IN
600 PM EDT WED MAR 22 2017

NOTE: "FAIR" INDICATES FEW OR NO CLOUDS BELOW 12,000 FEET WITH NO
SIGNIFICANT WEATHER AND/OR OBSTRUCTIONS TO VISIBILITY.

* - STATION DOES NOT REPORT WEATHER SUCH AS PRECIPITATION OR FOG.

+ - STATION NOT QUALITY CONTROLLED BY THE NATIONAL WEATHER SERVICE.
    USE DATA WITH CAUTION...ESPECIALLY DEWPOINT AND RELATIVE
    HUMIDITY OBSERVATIONS.

INZ001>003-010>013-019-020-222300-
NORTHWEST INDIANA

CITY           SKY/WX    TMP DP  RH WIND       PRES   REMARKS
GARY /AIRPORT/ MOSUNNY   34  18  51 NE8       30.54F WCI  27
KNOX *+        SUNNY     37 -17   9 NE8       30.50F
LA PORTE +     SUNNY     37  15  39 SE5       30.51F
MICHIGAN CITY+ SUNNY     32  21  64 N7        30.53F WCI  26
MONTICELLO +   SUNNY     39  15  37 E7        30.48F
RENSSELAER +     N/A     39  18  41 E10G20    30.49F
VALPARAISO     SUNNY     39  20  46 N6        30.50F

$$

LMZ046-743>745-222300-
SOUTHERN LAKE MICHIGAN

STATION/POSITION TIME  TEMP    WIND        PRES    WAVE
                       AIR SEA DIR/SP/G            HT
                 (UTC) (F)     (DEG/KT/KT) (MB)    (FT)
BURNS HARBOR     2140   29      40/  9/ 10 1034.2F
MICHIGAN CITY    2140   29      10/  8/  9   N/A

$$

INZ004-005-014>016-021>024-222300-
NORTH CENTRAL INDIANA

CITY           SKY/WX    TMP DP  RH WIND       PRES   REMARKS
ELKHART        SUNNY     37  10  32 NE3       30.51F
GOSHEN         SUNNY     38  10  31 E7        30.51F
LOGANSPORT +   SUNNY     37  18  44 E9        30.50F
ROCHESTER +    SUNNY     39  12  33 E8        30.50F
SOUTH BEND     SUNNY     38  10  31 E7        30.51F
WARSAW +       SUNNY     36  12  38 E6        30.50F

$$

INZ006>009-017-018-025>027-222300-
NORTHEAST INDIANA

CITY           SKY/WX    TMP DP  RH WIND       PRES   REMARKS
ANGOLA *+      SUNNY     36  21  55 CALM      30.50F
AUBURN +       SUNNY     36  14  41 NE5       30.52S
FORT WAYNE     MOSUNNY   36  14  40 E12       30.51F
HUNTINGTON +   SUNNY     36  14  40 NE8       30.50F
KENDALLVILLE + SUNNY     36  13  37 E6        30.50F

$$

INZ028-029-035-036-043>045-051>053-222300-
WEST CENTRAL INDIANA

CITY           SKY/WX    TMP DP  RH WIND       PRES   REMARKS
CRAWFORDSVL +  SUNNY     38  22  52 NE12      30.46F
GREENCASTLE +  SUNNY     41  16  36 E10       30.45F
LAFAYETTE      SUNNY     38  19  46 E15       30.48F
TERRE HAUTE    SUNNY     44  15  31 E10       30.44S

$$

INZ030>032-037>040-046>048-054>057-064-065-222300-
CENTRAL INDIANA

CITY           SKY/WX    TMP DP  RH WIND       PRES   REMARKS
CP ATTERBURY + SUNNY     43  19  39 E13       30.45S
COLUMBUS       SUNNY     41  19  42 NE14G20   30.45F
FISHERS *+     SUNNY     39  23  52 NE6       30.47F
FRANKFORT +    SUNNY     41  24  49 E10       30.49F
GREENWOOD *+   SUNNY     41  20  44 E10       30.46S
INDIANAPOLIS   MOSUNNY   41  17  38 NE13      30.45F
-EAGLE CREEK   SUNNY     41  17  38 NE9       30.45F
KOKOMO +       SUNNY     37  20  50 E10G20    30.50F
MARION +       SUNNY     36  21  53 E12G18    30.50S
MT COMFORT *+  SUNNY     39  21  48 E14       30.46F
SHELBYVILLE    SUNNY     41  20  43 NE15      30.45F
ZIONSVILLE +   SUNNY     37  22  54 E13       30.47F

$$

INZ033-034-041-042-049-050-058-059-222300-
EAST CENTRAL INDIANA

CITY           SKY/WX    TMP DP  RH WIND       PRES   REMARKS
MUNCIE         SUNNY     39  21  48 E10       30.48F
RICHMOND +     SUNNY     36  21  55 NE13G20   30.46S

$$

INZ060-061-067>069-081>083-085>088-222300-
SOUTHWEST INDIANA

CITY           SKY/WX    TMP DP  RH WIND       PRES   REMARKS
EVANSVILLE     SUNNY     53  18  25 NE10      30.37F
HUNTINGBURG *+ SUNNY     48  18  30 NE14      30.38F
WASHINGTON +   SUNNY     48  10  22 CALM      30.40S

$$

INZ062-063-066-070>080-084-089>092-222300-
SOUTH CENTRAL AND SOUTHEAST INDIANA

CITY           SKY/WX    TMP DP  RH WIND       PRES   REMARKS
BEDFORD +      SUNNY     45  10  24 NE12G20   30.41S
BLOOMINGTON    SUNNY     44  14  29 E9        30.42S
MADISON *+     SUNNY     45  14  29 NE14G20   30.43S
NORTH VERNON + SUNNY     43  21  42 NE9G17    30.43F
SEYMOUR +      SUNNY     46  19  34 NE10G17   30.43F

$$





USA.gov is the U.S. government's official web portal to all federal, state and local government web resources and services.